Home > Weather > Cairo > Past weeks

Flag for Egypt Weather for the Past 2 Weeks in Cairo, Egypt

Now
75 °F

Clear.


Feels Like: 78 °F
Forecast: 55 / 84 °F
Wind: 9 mph from Northeast

Location: Cairo Airport

Current Time: Feb 14, 2016 at 7:52:38 PM

Latest Report: Feb 14, 2016 at 7:00 PM


Visibility: 10 mi

Pressure: 30.09 "Hg

Humidity: 41%

Dew point: 50 °F

Location of CairoLocation

Historic Weather in Cairo — Graph

°F

Cairo Temperature Yesterday

Maximum temperature yesterday: 77 °F (at 3:00 PM)
Minimum temperature yesterday: 54 °F (at 6:00 AM)
Average temperature yesterday: 66 °F

High & Low Weather Summary for the Past Weeks

 TemperatureHumidityPressure
High82 °F (Feb 14, 2:30 PM)100% (Feb 3, 7:00 AM)30.33 "Hg (Feb 3, 7:00 AM)
Low46 °F (Feb 9, 5:30 AM)21% (Feb 14, 2:30 PM)29.95 "Hg (Feb 5, 3:00 AM)
Average60 °F57%30.18 "Hg
* Reported Jan 30 6:00 PM — Feb 14 6:30 PM, Cairo, Weather by CustomWeather, © 2016

Note: Actual official high and low records may vary slightly from our data, if they occured in-between our weather recording intervals... More about our weather records

Advertising

Cairo Weather History for the Previous 24 Hours

 ConditionsComfort  
Time TempWeatherWind HumidityBarometerVisibility
6:30 PM
Sun, Feb 14
75 °FClear.9 mph41%30.09 "Hg10 mi
6:00 PM77 °FClear.9 mph39%30.09 "Hg10 mi
5:30 PM81 °FSunny.12 mph32%30.07 "Hg10 mi
5:00 PM82 °FSunny.12 mph21%30.07 "Hg10 mi
4:30 PM82 °FSunny.13 mph21%30.07 "Hg10 mi
4:00 PM82 °FSunny.10 mph23%30.07 "Hg10 mi
3:30 PM82 °FSunny.12 mph21%30.07 "Hg10 mi
3:00 PM82 °FSunny.9 mph21%30.07 "Hg10 mi
2:30 PM82 °FSunny.7 mph21%30.07 "Hg10 mi
2:00 PM81 °FSunny.7 mph23%30.07 "Hg10 mi
1:30 PM81 °FSunny.7 mph23%30.07 "Hg10 mi
1:00 PM81 °FSunny.3 mph24%30.09 "Hg10 mi
12:30 PM79 °FSunny.2 mph26%30.09 "Hg10 mi
12:00 PM77 °FSunny.5 mph28%30.12 "Hg10 mi
11:30 AM77 °FSunny.3 mph24%30.12 "Hg10 mi
11:00 AM75 °FSunny.7 mph27%30.12 "Hg10 mi
10:30 AM73 °FClear.6 mph33%30.12 "Hg4 mi
10:00 AM73 °FHaze.2 mph36%30.12 "Hg2 mi
9:30 AM72 °FHaze.2 mph41%30.12 "Hg2 mi
9:00 AM66 °FHaze.No wind46%30.12 "Hg2 mi
8:30 AM64 °FClear.No wind49%30.12 "Hg4 mi
8:00 AM61 °FClear.No wind55%30.12 "Hg4 mi
7:30 AM59 °FSunny.No wind59%30.12 "Hg10 mi
7:00 AM57 °FSunny.6 mph59%30.12 "Hg10 mi
6:30 AM57 °FClear.6 mph51%30.09 "Hg10 mi
6:00 AM57 °FClear.7 mph59%30.09 "Hg10 mi
5:30 AM57 °FClear.No wind63%30.09 "Hg10 mi
5:00 AM57 °FClear.No wind63%30.09 "Hg10 mi
4:30 AM59 °FClear.No wind59%30.07 "Hg10 mi
4:00 AM59 °FClear.1 mph59%30.07 "Hg10 mi
3:30 AM59 °FClear.6 mph59%30.07 "Hg10 mi
3:00 AM59 °FClear.6 mph59%30.09 "Hg10 mi
2:30 AM59 °FClear.No wind59%30.09 "Hg10 mi
2:00 AM61 °FClear.No wind59%30.09 "Hg10 mi
1:30 AM61 °FClear.6 mph59%30.09 "Hg10 mi
1:00 AM61 °FClear.6 mph59%30.09 "Hg10 mi
12:30 AM61 °FClear.8 mph59%30.09 "Hg10 mi
12:00 AM63 °FClear.8 mph56%30.09 "Hg10 mi
11:30 PM
Sat, Feb 13
64 °FClear.8 mph52%30.09 "Hg10 mi
11:00 PM64 °FClear.3 mph52%30.09 "Hg10 mi
10:30 PM66 °FClear.6 mph49%30.09 "Hg10 mi
10:00 PM66 °FClear.7 mph49%30.09 "Hg10 mi
9:30 PM66 °FClear.8 mph49%30.09 "Hg10 mi
9:00 PM68 °FClear.6 mph46%30.09 "Hg10 mi
8:30 PM68 °FClear.6 mph43%30.09 "Hg10 mi
8:00 PM68 °FClear.3 mph43%30.09 "Hg10 mi
7:30 PM70 °FClear.1 mph40%30.09 "Hg10 mi
7:00 PM72 °FClear.3 mph38%30.09 "Hg10 mi
Weather by CustomWeather, © 2016

See weather overviewHow to use our weather pages